This is the latest recevied weather packets stored in our database for station/object W8DRH-13. If no packets are shown the sender has not sent any weather packets the latest 10 day(s).
| Time | Temp. | Humidity | Pressure | Rain* | Wind** | Luminosity | Snow |
|---|---|---|---|---|---|---|---|
| 1778205997 | 10.56° C | 61% | 1011.3 hPa | 0 mm | - | 0 W/m² | - |
| 1778205391 | 11.11° C | 61% | 1011.3 hPa | 0 mm | - | 0 W/m² | - |
| 1778205088 | 11.11° C | 58% | 1011.3 hPa | 0 mm | - | 0 W/m² | - |
| 1778204784 | 11.11° C | 58% | 1011.4 hPa | 0 mm | - | 0 W/m² | - |
| 1778204481 | 11.67° C | 57% | 1011.1 hPa | 0 mm | - | 0 W/m² | - |
| 1778204177 | 11.11° C | 56% | 1011.1 hPa | 0 mm | - | 0 W/m² | - |
| 1778203874 | 11.11° C | 56% | 1011.1 hPa | 0 mm | - | 0 W/m² | - |
| 1778203571 | 11.67° C | 57% | 1010.9 hPa | 0 mm | - | 0 W/m² | - |
| 1778203268 | 11.67° C | 57% | 1011.1 hPa | 0 mm | - | 0 W/m² | - |
| 1778202967 | 11.67° C | 55% | 1011.3 hPa | 0 mm | - | 0 W/m² | - |
| 1778202664 | 11.67° C | 54% | 1010.9 hPa | 0 mm | - | 0 W/m² | - |
| 1778202360 | 11.67° C | 54% | 1011.1 hPa | 0 mm | - | 0 W/m² | - |
| 1778202058 | 12.22° C | 52% | 1010.9 hPa | 0 mm | - | 0 W/m² | - |
| 1778201754 | 12.22° C | 50% | 1011.1 hPa | 0 mm | - | 0 W/m² | - |
| 1778201451 | 12.22° C | 51% | 1010.9 hPa | 0 mm | - | 0 W/m² | - |
| 1778201147 | 12.22° C | 50% | 1011.1 hPa | 0 mm | - | 0 W/m² | - |
| 1778200844 | 12.78° C | 50% | 1010.9 hPa | 0 mm | - | 0 W/m² | - |
| 1778200540 | 12.78° C | 51% | 1010.9 hPa | 0 mm | - | 0 W/m² | - |
| 1778200238 | 12.78° C | 50% | 1010.6 hPa | 0 mm | - | 0 W/m² | - |
| 1778199934 | 12.78° C | 49% | 1010.5 hPa | 0 mm | - | 0 W/m² | - |
| 1778199632 | 12.78° C | 49% | 1010.6 hPa | 0 mm | - | 4 W/m² | - |
| 1778199327 | 12.78° C | 49% | 1010.6 hPa | 0 mm | - | 5 W/m² | - |
| 1778199024 | 12.78° C | 50% | 1010.4 hPa | 0 mm | - | 10 W/m² | - |
| 1778198720 | 12.78° C | 48% | 1010.6 hPa | 0 mm | - | 13 W/m² | - |
| 1778198417 | 12.78° C | 49% | 1010.5 hPa | 0 mm | - | 18 W/m² | - |
* Rain latest hour (hover to see other rain measurements)
** Current wind speed in m/s (hover to see current wind gust speed)